Lake Natoma Weather Center

Moon Phase Calendar



Lake Natoma Water Level
Online Cameras

 


      

Current Conditions in Folsom
7/29/2021 6:16:52 AM

70°F
Feels Like 70
Clouds
Humidity
60%
Pressure
29.88"
Wind
2 mph (ESE)
Dew Point
56°F
UV Index
0/10 (Low)
Visibility
6 mi

Hourly Forecast

Date & Time Thu, Jul 29
6:00 AM
Thu, Jul 29
7:00 AM
Thu, Jul 29
8:00 AM
Thu, Jul 29
9:00 AM
Thu, Jul 29
10:00 AM
Thu, Jul 29
11:00 AM
Thu, Jul 29
12:00 PM
Thu, Jul 29
1:00 PM
Thu, Jul 29
2:00 PM
Thu, Jul 29
3:00 PM
Thu, Jul 29
4:00 PM
Thu, Jul 29
5:00 PM
Thu, Jul 29
6:00 PM
Thu, Jul 29
7:00 PM
Thu, Jul 29
8:00 PM
Thu, Jul 29
9:00 PM
Thu, Jul 29
10:00 PM
Thu, Jul 29
11:00 PM
Fri, Jul 30
12:00 AM
Fri, Jul 30
1:00 AM
Fri, Jul 30
2:00 AM
Fri, Jul 30
3:00 AM
Fri, Jul 30
4:00 AM
Fri, Jul 30
5:00 AM
Fri, Jul 30
6:00 AM
Fri, Jul 30
7:00 AM
Fri, Jul 30
8:00 AM
Fri, Jul 30
9:00 AM
Fri, Jul 30
10:00 AM
Fri, Jul 30
11:00 AM
Fri, Jul 30
12:00 PM
Fri, Jul 30
1:00 PM
Fri, Jul 30
2:00 PM
Fri, Jul 30
3:00 PM
Fri, Jul 30
4:00 PM
Fri, Jul 30
5:00 PM
Fri, Jul 30
6:00 PM
Fri, Jul 30
7:00 PM
Fri, Jul 30
8:00 PM
Fri, Jul 30
9:00 PM
Fri, Jul 30
10:00 PM
Fri, Jul 30
11:00 PM
Sat, Jul 31
12:00 AM
Sat, Jul 31
1:00 AM
Sat, Jul 31
2:00 AM
Sat, Jul 31
3:00 AM
Sat, Jul 31
4:00 AM
Sat, Jul 31
5:00 AM
Condition
Clouds

Clouds

Clouds

Clouds

Clear

Clear

Clear

Clear

Clear

Clear

Clear

Clear

Clouds

Clouds

Clouds

Clouds

Clouds

Clouds

Clouds

Clouds

Clouds

Clouds

Clear

Clouds

Clouds

Clouds

Clouds

Clouds

Clouds

Clouds

Clear

Clear

Clouds

Clouds

Clouds

Clouds

Clouds

Clouds

Clouds

Clouds

Clouds

Clouds

Clouds

Clouds

Clouds

Clouds

Clouds

Clouds
Temperature 70°F70°F73°F77°F84°F92°F96°F100°F103°F105°F107°F106°F105°F100°F94°F87°F83°F82°F81°F79°F78°F78°F76°F75°F74°F76°F82°F87°F92°F96°F100°F104°F107°F108°F108°F108°F106°F100°F93°F87°F82°F80°F78°F76°F74°F73°F71°F71°F
Feels Like 70°F70°F72°F77°F82°F89°F93°F97°F100°F102°F103°F103°F102°F97°F90°F84°F81°F81°F80°F79°F77°F77°F75°F74°F73°F75°F80°F84°F89°F93°F97°F99°F102°F103°F103°F103°F101°F96°F89°F84°F81°F80°F77°F75°F73°F72°F70°F69°F
Cloudiness 20%17%14%12%9%6%5%4%4%3%2%2%70%85%83%69%69%74%100%95%96%97%0%93%20%68%12%64%71%76%3%3%27%45%84%57%87%100%100%100%100%100%100%100%100%100%100%100%
Visibility 6 mi6 mi6 mi6 mi6 mi6 mi6 mi6 mi6 mi6 mi6 mi6 mi6 mi6 mi6 mi6 mi6 mi6 mi6 mi6 mi6 mi6 mi6 mi6 mi6 mi6 mi6 mi6 mi6 mi6 mi6 mi6 mi6 mi6 mi6 mi6 mi6 mi6 mi6 mi6 mi6 mi6 mi6 mi6 mi6 mi6 mi6 mi6 mi
Precipitation 0%0%0%0%0%0%0%0%0%0%0%0%0%0%0%0%0%0%0%0%0%0%0%0%0%0%0%0%0%0%0%0%0%0%0%0%0%0%0%0%0%0%0%0%0%0%0%0%
Humidity 60%58%52%44%35%24%21%19%17%15%14%14%16%19%23%28%32%34%34%35%37%37%39%40%42%38%32%26%22%19%16%13%11%11%11%12%13%16%21%25%29%31%34%35%37%40%42%44%
Dew Point 56°F55°F54°F54°F53°F50°F50°F50°F49°F49°F48°F48°F49°F50°F50°F49°F49°F50°F49°F49°F49°F49°F49°F48°F48°F48°F49°F48°F48°F48°F46°F43°F42°F41°F43°F44°F44°F46°F46°F46°F46°F46°F46°F46°F46°F46°F46°F47°F
Pressure 29.88"29.88"29.91"29.91"29.91"29.91"29.88"29.85"29.83"29.8"29.77"29.74"29.74"29.77"29.77"29.8"29.83"29.83"29.83"29.83"29.8"29.8"29.8"-2.95"29.8"29.83"29.85"29.85"29.83"29.83"29.83"29.8"29.8"29.77"29.74"29.74"29.74"29.77"29.8"29.83"29.85"29.85"29.88"29.85"29.88"29.88"29.88"29.88"
Wind Speed 3.7 mph3.3 mph2.8 mph2.9 mph3.7 mph4.3 mph4.9 mph5.2 mph6 mph5.7 mph4.9 mph7 mph9.7 mph10.3 mph8.5 mph5.1 mph5.7 mph5.6 mph4.7 mph4.6 mph3.6 mph4 mph3.9 mph3.3 mph3.4 mph2.7 mph2.6 mph2 mph3.1 mph4.3 mph5.3 mph5.7 mph5.9 mph6.3 mph8.3 mph9.8 mph10.2 mph9.3 mph7.9 mph5.9 mph6.4 mph7 mph6.2 mph6.6 mph6.9 mph5.9 mph5.7 mph5.6 mph
Wind
Direction
142°
SE
137°
SE
160°
SSE
198°
SSW
230°
SW
245°
WSW
255°
WSW
259°
W
259°
W
258°
WSW
245°
WSW
232°
SW
221°
SW
217°
SW
221°
SW
185°
S
133°
SE
135°
SE
146°
SE
142°
SE
157°
SSE
151°
SSE
155°
SSE
130°
SE
120°
ESE
135°
SE
172°
S
201°
SSW
238°
WSW
246°
WSW
240°
WSW
249°
WSW
251°
WSW
248°
WSW
237°
WSW
237°
WSW
227°
SW
213°
SSW
210°
SSW
182°
S
144°
SE
151°
SSE
159°
SSE
159°
SSE
167°
SSE
165°
SSE
149°
SSE
149°
SSE

Daily Forecast

Date High Low Precip. Humidity
Today
Jul 29

Clear
107 °F
70 °F
0%
19%
Friday
Jul 30

Clouds
108 °F
74 °F
0%
14%
Saturday
Jul 31

Clouds
98 °F
71 °F
0%
17%
Sunday
Aug 1

Clear
102 °F
69 °F
0%
16%
Monday
Aug 2

Clear
98 °F
65 °F
0%
12%
Tuesday
Aug 3

Clear
99 °F
61 °F
0%
11%
Wednesday
Aug 4

Clear
100 °F
62 °F
0%
11%
Thursday
Aug 5

Clear
100 °F
66 °F
0%
13%
Friday
Aug 6

Clear
95 °F
65 °F
0%
22%
Saturday
Aug 7

Clear
95 °F
63 °F
0%
18%
Sunday
Aug 8

Clear
96 °F
64 °F
0%
18%
Monday
Aug 9

Clear
94 °F
64 °F
0%
17%
Tuesday
Aug 10

Clear
90 °F
61 °F
0%
22%
Wednesday
Aug 11

Clear
90 °F
58 °F
0%
20%
Thursday
Aug 12

Clear
89 °F
58 °F
0%
25%
Friday
Aug 13

Clouds
90 °F
59 °F
0%
21%

Temperature 8-14 Day Outlook



Precipitation 8-14 Day Outlook




Quick Links
Lake Natoma News
Lake Natoma Photos
Lake Natoma Videos




About Us
Contact Us
Site Map
Search Site
Advertise With Us
   
LakeNatoma.LakesOnline.com
THE LAKE NATOMA WEBSITE

Copyright 2021, Lakes Online
Privacy    |    Legal